Theta_e
311 311 311 310 309 308 303 294 290 305 310 298 295 291 294 299 298 302 301 303 302 301 302 301 302 301 304 309 308 301 300 295 296 299 305 306 305 301 298 294 292 293 293 296
309 310 310 309 308 308 303 291 293 303 303 292 293 298 301 301 299 298 299 301 304 305 302 299 305 305 311 309 308 304 303 294 294 295 298 301 302 302 301 297 295 293 293 297
309 310 309 308 308 308 305 293 291 297 299 295 295 294 297 299 307 304 305 303 305 303 302 305 303 303 310 311 309 318 310 295 296 295 296 300 299 302 303 299 294 294 296 299
309 309 309 309 308 308 305 295 294 294 290 293 292 292 298 300 301 307 305 302 306 305 298 302 304 310 310 312 314 313 303 295 297 299 304 305 305 304 303 299 299 298 299 301
309 309 309 309 308 308 299 295 294 296 291 292 293 294 295 297 300 303 301 303 308 306 302 307 305 307 303 304 308 304 299 296 299 300 303 305 302 306 306 306 304 303 302 303
309 309 309 309 308 306 297 298 300 295 292 291 291 292 296 297 299 306 309 308 306 305 307 309 309 309 308 308 304 303 299 298 296 294 301 303 300 303 304 305 308 305 299 304
309 308 308 309 309 307 304 300 300 293 290 291 294 295 299 298 300 299 309 308 303 312 311 310 310 307 307 309 307 306 300 297 295 295 295 291 301 309 312 309 310 310 307 309
309 309 309 308 309 309 299 300 300 294 288 294 295 297 296 297 300 301 304 306 308 308 305 301 301 302 303 306 308 308 308 304 299 293 291 296 304 308 309 307 307 313 310 313
308 309 308 308 309 309 301 302 304 298 290 290 297 294 296 292 293 299 303 306 306 307 301 300 295 297 301 302 303 305 308 307 303 299 293 291 299 312 315 311 301 313 314 313
308 308 308 308 308 309 305 301 305 297 293 295 294 292 291 293 293 295 299 298 302 309 299 294 294 295 303 299 297 299 301 302 298 297 295 298 308 314 314 299 301 313 313 312
308 308 308 308 308 308 304 302 305 302 297 298 299 299 294 295 295 293 297 299 302 306 300 297 295 294 298 301 304 303 303 301 299 299 296 293 314 313 308 309 312 314 315 316
307 308 308 308 308 308 307 299 304 305 297 297 302 302 303 302 301 295 292 293 298 303 299 301 301 300 301 299 299 308 303 307 305 305 303 311 314 312 313 314 312 314 314 316
307 307 307 307 308 307 307 301 300 299 295 295 294 297 302 303 303 303 294 296 299 300 301 298 303 300 303 300 302 305 311 315 308 307 311 314 316 315 316 316 315 316 318 319
307 306 307 307 308 307 307 299 301 299 297 289 293 303 299 303 302 302 301 298 299 300 300 295 297 299 304 301 305 306 310 310 310 309 313 313 314 314 314 317 318 317 317 318
306 306 307 307 308 308 305 302 302 303 299 292 292 299 302 302 303 304 304 300 297 297 294 293 293 301 301 300 304 303 308 309 306 305 311 310 311 314 315 311 312 313 312 312
306 306 307 307 308 309 301 299 302 304 300 292 289 299 298 300 302 301 299 301 299 298 293 294 296 300 301 297 296 302 311 313 313 311 314 313 314 313 311 310 310 311 309 309
306 306 307 307 308 300 297 297 303 305 301 295 293 294 299 302 300 301 299 299 299 297 293 293 293 295 299 299 295 299 306 306 308 314 308 303 305 303 309 312 313 312 311 310
306 307 307 308 308 304 296 302 305 303 297 295 291 293 295 299 295 296 301 297 298 297 294 294 294 296 294 294 298 300 303 306 306 306 307 305 306 307 307 309 309 307 307 307
306 307 308 302 298 294 298 312 309 302 298 291 294 290 290 297 296 298 298 300 294 298 293 292 294 293 295 293 299 302 303 303 302 305 305 306 304 304 305 306 306 304 304 304
306 301 298 292 298 312 308 298 295 295 296 294 291 295 291 294 295 294 297 297 295 292 295 297 299 297 302 303 302 303 304 305 305 303 302 303 303 304 305 305 306 305 305 305
296 294 296 303 310 297 294 290 291 293 291 293 293 292 291 299 294 294 297 293 294 290 295 294 296 297 302 306 306 308 308 308 307 306 304 304 303 304 304 305 306 306 305 305
301 300 302 300 296 291 288 286 292 292 289 293 292 293 297 298 299 296 297 293 294 289 297 295 296 303 305 307 308 309 308 309 309 309 308 308 309 308 307 306 306 309 309 308
302 298 294 292 289 279 285 282 287 289 293 293 293 292 294 296 296 296 295 292 290 296 294 296 300 305 308 308 308 308 309 310 311 311 311 311 311 312 310 309 311 311 312 312
295 291 284 286 283 288 288 290 293 297 296 295 296 295 294 296 294 295 291 294 295 291 291 294 299 301 305 305 307 307 307 309 310 310 311 312 312 312 312 313 312 313 311 308
292 292 284 289 293 294 297 298 297 298 297 295 295 295 296 293 293 294 293 292 291 294 295 299 302 302 304 305 307 306 305 307 308 310 310 311 311 310 309 310 309 310 310 307
293 292 290 294 293 294 295 293 295 298 296 296 295 292 292 292 292 291 291 292 292 295 299 301 303 304 304 304 305 307 307 306 307 307 309 309 309 308 307 309 310 310 310 311
293 291 295 296 295 294 294 295 294 298 295 292 293 289 289 294 289 290 295 293 297 298 299 302 302 303 304 305 306 307 307 306 306 307 308 307 309 309 308 305 308 310 310 310
Wind_Speed
18 19 20 21 22 26 7 5 5 3 3 4 3 4 5 4 8 8 10 7 15 13 17 21 18 22 18 25 24 12 11 8 14 18 12 8 9 10 8 8 5 1 6 9
19 19 20 19 19 17 8 5 6 7 5 3 4 7 9 8 10 11 7 10 15 14 16 16 10 8 10 13 26 20 11 7 8 9 8 3 8 6 7 6 6 7 7 7
18 18 18 18 19 16 5 3 5 6 5 3 1 5 8 10 7 12 12 20 20 15 16 9 5 6 6 9 26 30 14 6 12 14 10 5 6 7 7 9 6 6 7 5
16 17 18 18 20 22 1 3 6 1 5 4 9 3 6 12 14 8 5 11 4 7 9 6 4 6 8 2 11 22 13 10 7 10 19 10 14 12 9 6 9 10 9 11
15 17 16 17 19 24 2 2 4 6 5 7 5 5 2 9 15 7 6 4 8 10 3 6 3 2 3 3 10 8 6 8 10 16 7 8 7 9 14 7 5 2 6 7
15 14 14 15 15 11 3 4 5 2 5 6 4 1 9 15 17 6 3 3 4 3 5 14 10 8 6 7 4 5 11 8 6 9 7 6 4 2 6 3 5 6 7 13
15 14 12 13 11 7 2 3 4 2 6 3 5 13 16 16 16 9 7 4 2 4 7 11 3 6 6 3 3 1 5 8 4 6 5 5 8 1 13 11 4 7 6 9
16 15 13 12 11 10 2 2 3 3 5 4 13 15 10 14 14 5 3 8 4 6 4 6 7 5 7 5 7 9 3 6 6 7 5 5 3 5 5 7 5 6 2 6
16 15 14 12 11 10 4 6 6 2 2 5 6 10 5 5 6 8 5 9 9 6 3 4 1 2 3 3 8 4 10 9 7 3 7 6 1 6 5 7 7 9 7 8
15 15 14 13 12 10 4 6 5 2 3 6 3 3 4 5 5 5 5 10 10 8 5 1 2 3 0 3 4 6 6 6 5 3 5 3 6 8 2 11 8 5 5 8
14 14 14 12 11 10 5 7 8 3 3 10 7 4 3 5 3 3 7 4 7 7 7 1 3 2 6 4 2 4 4 3 4 4 5 5 15 7 10 5 3 7 8 6
12 13 14 12 11 7 7 4 4 3 4 8 7 17 19 14 16 3 4 3 1 3 3 4 3 4 4 4 4 5 5 6 6 5 4 7 9 9 2 4 6 6 10 6
11 11 10 10 10 7 6 4 4 3 3 6 2 8 9 8 9 6 1 3 2 3 5 1 4 3 2 4 2 5 2 3 5 8 4 4 6 6 8 9 8 9 7 6
9 10 11 11 11 8 8 2 3 2 4 3 8 4 4 3 4 5 5 4 4 2 2 1 2 2 3 0 4 3 5 4 8 1 3 2 4 5 4 7 11 9 8 6
9 10 11 10 10 8 6 4 5 5 3 4 7 13 8 7 5 4 4 4 2 1 2 1 3 3 5 4 5 5 2 6 6 6 4 5 6 4 4 11 6 1 3 7
8 9 9 10 7 8 3 2 1 1 1 0 5 5 4 5 5 5 3 2 3 3 3 3 3 3 5 3 2 6 3 7 9 7 7 7 3 6 4 8 7 9 9 7
7 9 8 9 7 0 3 3 2 3 3 0 5 5 5 5 3 3 1 0 2 3 1 1 1 2 5 3 3 4 6 10 7 6 5 8 7 4 8 10 8 9 7 8
7 7 8 9 8 7 5 5 13 4 1 2 3 5 4 4 1 2 2 1 1 2 2 2 2 4 4 4 4 5 6 12 13 9 9 6 7 11 10 8 10 11 9 8
6 6 8 3 1 2 5 4 7 2 3 2 3 3 4 1 3 2 2 3 0 2 1 2 4 5 8 2 5 11 8 8 5 10 12 12 11 9 10 9 11 8 9 8
3 2 1 3 3 4 1 4 0 1 3 3 3 3 4 2 2 2 2 1 2 2 4 4 6 4 3 7 7 7 8 8 9 13 11 10 8 7 6 6 6 6 6 6
2 2 2 3 9 4 1 2 2 2 3 4 5 5 2 3 3 2 1 2 1 2 3 6 4 3 5 7 8 8 8 8 8 6 3 3 3 5 6 6 5 6 8 6
1 2 4 3 2 1 0 3 4 3 4 3 3 4 4 3 2 3 4 1 3 2 2 5 4 1 4 7 7 7 6 7 6 5 5 5 4 3 2 4 3 5 7 7
2 2 3 3 2 5 2 2 4 3 4 1 0 2 1 5 4 3 4 5 2 1 5 5 3 2 3 5 5 6 6 6 6 6 5 4 6 5 3 5 4 5 3 5
1 2 5 2 3 3 3 1 1 5 2 4 3 3 3 2 4 2 3 3 2 5 6 3 0 2 5 5 5 6 7 7 7 6 6 5 6 6 7 7 7 2 4 5
2 2 4 2 5 2 3 2 1 5 3 4 4 4 3 3 3 2 2 2 5 5 3 2 1 1 5 5 5 5 5 5 5 5 6 6 6 6 5 5 6 7 5 5
2 2 4 5 5 7 5 5 4 4 5 3 4 3 4 4 2 4 4 4 5 2 1 2 2 4 3 3 4 4 4 4 5 5 4 5 6 6 6 7 6 6 5 5
4 3 2 1 4 4 4 4 4 4 5 3 3 4 1 1 3 5 5 3 2 2 1 1 2 3 5 5 5 6 6 7 6 7 7 6 6 6 5 6 6 6 5 3
Wind_Direction
332 333 338 340 340 337 23 354 321 342 109 99 191 214 227 256 262 292 288 283 266 268 294 300 274 218 200 192 202 196 195 171 235 247 248 228 163 171 145 135 230 150 156 265
332 332 336 339 340 352 335 315 266 287 118 256 258 277 271 263 268 250 254 256 266 277 281 283 237 206 216 214 197 200 191 211 236 306 333 354 161 165 140 107 89 184 137 257
330 332 335 337 333 334 331 303 318 308 29 303 352 5 286 284 270 269 279 282 276 288 274 255 278 277 264 196 202 205 158 143 192 222 213 183 194 161 160 139 138 173 204 190
322 330 335 336 333 329 191 220 248 233 319 310 325 257 270 293 306 276 255 292 48 341 274 290 329 323 324 290 221 211 155 179 153 214 222 209 203 182 159 151 180 163 217 183
313 324 333 336 338 335 146 298 7 342 277 278 289 272 281 323 307 256 278 259 351 346 352 320 314 343 331 306 327 233 177 217 150 228 229 212 163 210 159 152 130 70 158 214
308 315 324 334 340 355 339 325 330 84 278 306 316 22 329 309 317 306 67 322 331 20 318 304 242 231 233 240 278 299 151 137 117 215 158 116 69 123 215 245 73 198 168 221
300 302 312 322 335 359 289 299 285 293 275 316 304 319 310 308 304 265 275 198 176 284 301 300 311 264 336 337 292 259 151 120 108 173 106 131 233 182 106 93 7 326 257 187
303 302 299 310 321 323 236 257 280 284 284 325 299 342 307 308 320 312 2 3 352 298 346 360 347 348 5 309 60 348 3 107 86 130 143 200 43 27 154 137 343 317 240 83
302 304 304 297 309 321 306 267 216 291 291 249 358 311 325 316 323 318 318 343 319 5 62 75 355 182 244 282 324 33 50 58 99 85 119 167 219 297 356 101 18 324 75 74
291 294 297 300 305 317 315 274 290 257 271 266 49 284 294 317 307 274 323 331 350 32 354 55 149 270 353 312 11 353 10 12 57 87 130 312 274 290 212 77 221 321 56 68
275 291 293 291 300 312 330 283 274 246 270 285 248 291 337 331 331 319 304 349 355 24 18 318 285 182 229 105 340 106 78 56 10 2 54 25 352 313 83 209 49 68 40 60
282 284 290 294 296 299 315 273 312 309 211 257 296 268 256 239 247 238 301 183 108 200 357 337 3 322 12 166 97 334 45 153 150 92 157 260 320 70 91 81 90 59 67 27
274 288 301 298 297 287 289 280 278 312 286 289 297 257 254 204 223 201 169 314 344 338 169 186 237 292 47 31 320 123 77 101 104 115 242 298 319 28 37 61 63 43 68 26
270 284 288 289 296 286 288 237 276 289 264 274 281 316 325 280 205 212 185 212 342 293 82 228 251 267 43 294 191 70 159 154 102 280 99 359 8 21 97 72 60 41 22 16
271 278 286 288 294 300 295 240 230 217 254 293 285 306 259 199 192 233 275 165 132 300 339 72 260 273 18 354 36 7 357 158 154 194 125 122 267 280 287 81 88 360 21 4
265 284 292 300 307 330 287 290 32 125 31 128 294 282 265 185 198 236 251 170 190 181 174 237 279 234 93 78 82 297 358 96 102 149 199 198 179 5 19 71 44 57 46 38
260 287 281 292 292 17 240 260 279 330 356 343 293 287 268 192 203 251 137 263 211 155 194 295 207 317 80 49 80 291 30 50 60 88 94 55 42 38 22 45 33 52 51 39
272 289 281 286 284 288 295 242 242 155 164 273 275 272 331 155 234 278 166 123 21 316 188 7 118 346 60 78 14 102 91 75 63 70 72 99 78 43 32 40 33 34 21 13
278 295 298 321 126 257 247 132 106 116 145 264 278 277 287 13 255 226 19 116 95 264 107 271 85 4 29 58 86 65 41 86 100 57 48 40 44 26 14 16 17 17 357 359
296 353 278 294 236 305 52 9 37 265 226 235 240 261 283 76 359 336 72 49 169 138 237 90 78 70 359 24 37 47 49 58 50 51 27 19 16 16 3 355 338 331 318 319
355 263 252 280 298 28 299 279 181 217 244 214 232 215 241 317 64 309 135 178 319 80 271 110 83 43 350 12 40 26 31 47 55 79 63 21 337 326 314 314 319 324 312 298
284 278 292 291 342 352 285 248 273 211 234 235 198 237 194 295 78 64 347 57 27 80 287 76 78 48 317 1 16 19 29 29 28 40 28 4 350 315 282 272 290 290 282 280
12 308 304 18 297 27 262 283 293 286 307 253 172 26 91 354 31 48 49 43 288 317 49 65 72 348 341 337 350 355 7 16 17 4 10 353 323 332 357 335 308 309 2 344
283 300 335 132 295 250 254 105 308 270 291 34 70 27 72 315 30 19 55 282 32 44 54 76 264 333 336 351 345 7 0 4 353 338 338 347 359 3 9 356 333 342 347 345
281 288 339 320 297 288 266 238 113 299 347 24 26 27 56 352 39 11 26 32 63 43 63 32 355 1 34 5 353 6 359 351 3 358 5 358 349 351 324 316 344 316 340 22
333 327 340 336 10 344 343 360 3 339 344 9 40 52 38 4 36 20 5 48 50 67 21 295 355 4 340 294 295 322 327 346 336 337 338 335 331 333 331 348 328 326 357 0
3 307 26 294 282 263 298 332 324 325 49 13 34 53 349 4 24 43 32 71 160 163 336 348 318 306 309 310 321 327 335 329 323 316 323 311 305 321 349 338 308 317 319 325